Regional Weather Roundup
Issued by NWS

Home | Current Version | Previous Version | Text Only | Print | Product List | Glossary On
Versions: 1 2 3 4 5 6 7 8 9 10 11 12 13 14 15 16 17 18 19 20 21 22 23 24 25 26 27 28 29 30 31 32 33 34 35 36 37 38 39 40 41 42 43 44 45 46 47 48 49 50
000
ASUS42 KFFC 281203
RWRGA
WEATHER ROUNDUP FOR GEORGIA
NATIONAL WEATHER SERVICE PEACHTREE CITY GA
800 AM EDT TUE APR 28 2015

NOTE: "FAIR" INDICATES FEW OR NO CLOUDS BELOW 12,000 FEET WITH NO
SIGNIFICANT WEATHER AND/OR OBSTRUCTIONS TO VISIBILITY.

* = USE WITH CAUTION. THE STATIONS MARKED WITH AN ASTERISK MAY NOT
REPORT WEATHER SUCH AS PRECIPITATION, FOG, OR THUNDER AND ARE NOT
QUALITY CONTROLLED BY NWS.

THE REMARK "TC" DENOTES TEMPERATURE READING IN DEGREES CELSIUS.

GAZ001>058-281300-
NORTH GEORGIA

CITY           SKY/WX    TMP DP  RH WIND       PRES   REMARKS
ATLANTA        PTSUNNY   54  39  57 E12       29.94R
6HR MIN TEMP:  53; 6HR MAX TEMP:  59;

ATHENS         CLOUDY    51  41  68 E5        29.96R
6HR MIN TEMP:  50; 6HR MAX TEMP:  55;

CHAMBLEE       MOSUNNY   53  39  59 E7        29.95R
6HR MIN TEMP:  50; 6HR MAX TEMP:  55;

PEACHTREE CITY CLOUDY    53  46  77 MISG      29.94R
6HR MIN TEMP:  48; 6HR MAX TEMP:  53;

ROME           SUNNY     48  42  80 N3        29.95R
6HR MIN TEMP:  44; 6HR MAX TEMP:  55;

WEST ATLANTA   PTSUNNY   56  37  49 E8        29.94R
6HR MIN TEMP:  49; 6HR MAX TEMP:  56;

GAINESVILLE    MOSUNNY   52  38  58 E7        29.98R
6HR MIN TEMP:  50; 6HR MAX TEMP:  56;

CARTERSVILLE   MOSUNNY   47  43  86 CALM      29.96R
6HR MIN TEMP:  41; 6HR MAX TEMP:  49;



CITY           SKY/WX    TMP DP  RH WIND       PRES   REMARKS
DALTON*        SUNNY     43  41  93 CALM      29.96R
LAWRENCEVILLE* SUNNY     52  37  58 E7        29.95R
MARIETTA       PTSUNNY   53  39  59 E7        29.95R
KENNESAW*      PTSUNNY   54  37  54 E9        29.96R
BLAIRSVILLE*     N/A     40  33  75 CALM      29.97S
$$

GAZ059>098-102>109-281300-
CENTRAL GEORGIA

CITY           SKY/WX    TMP DP  RH WIND       PRES   REMARKS
AUGUSTA-BUSH   CLOUDY    54  43  66 CALM      29.96R
6HR MIN TEMP:  51; 6HR MAX TEMP:  57;

AUGUSTA-DANIEL CLOUDY    57  36  45 E5        29.97R
6HR MIN TEMP:  57; 6HR MAX TEMP:  63;

COLUMBUS       CLOUDY    57  44  62 E9        29.88R
6HR MIN TEMP:  55; 6HR MAX TEMP:  61;

MACON          CLOUDY    55  48  77 E9        29.93R
6HR MIN TEMP:  54; 6HR MAX TEMP:  56;

ROBINS AFB     CLOUDY    57  48  71 E8        29.92R


CITY           SKY/WX    TMP DP  RH WIND       PRES   REMARKS
LAGRANGE*      CLOUDY    56  49  75 CALM      29.91R
SYLVANIA*      CLOUDY    55  47  74 E5        29.96R
MILLEDGEVILLE* CLOUDY    57  45  62 E3        29.95R
$$

GAZ099>101-110>166-281300-
SOUTH GEORGIA

CITY           SKY/WX    TMP DP  RH WIND       PRES   REMARKS
SAVANNAH       CLOUDY    58  46  64 NE7       29.93R
6HR MIN TEMP:  56; 6HR MAX TEMP:  63;

VALDOSTA       LGT RAIN  65  63  93 NE5       29.87R
6HR MIN TEMP:  64; 6HR MAX TEMP:  66; 6HR PCP: TRACE;

ALMA           CLOUDY    63  59  87 CALM      29.91R
6HR MIN TEMP:  61; 6HR MAX TEMP:  63;

ST SIMONS      CLOUDY    67  50  54 E9        29.90R
6HR MIN TEMP:  66; 6HR MAX TEMP:  68; 6HR PCP: TRACE;

FT STEWART     MOSUNNY   59  57  94 NE9       29.89R
ALBANY         CLOUDY    64  60  87 E6        29.89R
HUNTER AFB     CLOUDY    61  48  62 NE8       29.91R
MOODY AFB      CLOUDY    64  59  86 E7        29.87R
BRUNSWICK      CLOUDY    64  54  68 N5        29.92R


CITY           SKY/WX    TMP DP  RH WIND       PRES   REMARKS
BAINBRIDGE*    CLOUDY    66  64  94 NE9       29.85R
MOULTRIE*      RAIN      63  61  94 E5        29.88S
VIDALIA*       CLOUDY    59  52  77 E13       29.94R
WAYCROSS*      CLOUDY    66  64  93 E5        29.90R
DOUGLAS*       CLOUDY    64  61  88 E5        29.91R
$$


USA.gov is the U.S. government's official web portal to all federal, state and local government web resources and services.